TimeEST,TemperatureF,Dew PointF,Humidity,Sea Level PressureIn,VisibilityMPH,Wind Direction,Wind SpeedMPH,Gust SpeedMPH,PrecipitationIn,Events,Conditions,WindDirDegrees,DateUTC
12:15 AM,50.0,44.6,82,30.17,7.0,SSW,3.5,-,N/A,,Overcast,210,2013-01-01 05:15:00
12:35 AM,50.0,44.6,82,30.16,7.0,Calm,Calm,-,N/A,,Overcast,0,2013-01-01 05:35:00
12:55 AM,50.0,44.6,82,30.16,7.0,Calm,Calm,-,N/A,,Overcast,0,2013-01-01 05:55:00
1:15 AM,50.0,44.6,82,30.16,7.0,Calm,Calm,-,N/A,,Overcast,0,2013-01-01 06:15:00
1:35 AM,50.0,44.6,82,30.15,10.0,Calm,Calm,-,N/A,,Overcast,0,2013-01-01 06:35:00
1:55 AM,50.0,44.6,82,30.14,7.0,Calm,Calm,-,N/A,,Overcast,0,2013-01-01 06:55:00
2:15 AM,50.0,44.6,82,30.13,7.0,Calm,Calm,-,N/A,,Overcast,0,2013-01-01 07:15:00
2:35 AM,50.0,44.6,82,30.12,7.0,Calm,Calm,-,N/A,,Overcast,0,2013-01-01 07:35:00
2:55 AM,48.2,44.6,87,30.12,7.0,Calm,Calm,-,N/A,,Overcast,0,2013-01-01 07:55:00
3:15 AM,50.0,44.6,82,30.12,7.0,Calm,Calm,-,N/A,,Overcast,0,2013-01-01 08:15:00
3:35 AM,50.0,44.6,82,30.12,7.0,Calm,Calm,-,N/A,,Overcast,0,2013-01-01 08:35:00
4:15 AM,48.2,44.6,87,30.11,7.0,Calm,Calm,-,N/A,,Mostly Cloudy,0,2013-01-01 09:15:00
4:35 AM,46.4,46.4,100,30.10,7.0,Calm,Calm,-,N/A,,Scattered Clouds,0,2013-01-01 09:35:00
4:55 AM,44.6,44.6,100,30.10,7.0,Calm,Calm,-,N/A,,Mostly Cloudy,0,2013-01-01 09:55:00
5:15 AM,44.6,44.6,100,30.11,7.0,Calm,Calm,-,N/A,,Scattered Clouds,0,2013-01-01 10:15:00
5:35 AM,44.6,44.6,100,30.11,7.0,Calm,Calm,-,N/A,,Scattered Clouds,0,2013-01-01 10:35:00
5:55 AM,42.8,42.8,100,30.10,5.0,Calm,Calm,-,N/A,,Clear,0,2013-01-01 10:55:00
6:15 AM,42.8,42.8,100,30.10,7.0,Calm,Calm,-,N/A,,Clear,0,2013-01-01 11:15:00
6:35 AM,42.8,42.8,100,30.10,7.0,Calm,Calm,-,N/A,,Scattered Clouds,0,2013-01-01 11:35:00
6:55 AM,42.8,42.8,100,30.11,7.0,Calm,Calm,-,N/A,,Scattered Clouds,0,2013-01-01 11:55:00
7:15 AM,42.8,42.8,100,30.11,7.0,Calm,Calm,-,N/A,,Overcast,0,2013-01-01 12:15:00
7:35 AM,44.6,44.6,100,30.12,5.0,Calm,Calm,-,N/A,,Overcast,0,2013-01-01 12:35:00
7:55 AM,44.6,44.6,100,30.12,5.0,Calm,Calm,-,N/A,,Overcast,0,2013-01-01 12:55:00
8:15 AM,46.4,46.4,100,30.13,5.0,Calm,Calm,-,N/A,,Overcast,0,2013-01-01 13:15:00
8:35 AM,50.0,48.2,94,30.13,5.0,Calm,Calm,-,N/A,,Overcast,0,2013-01-01 13:35:00
8:55 AM,51.8,48.2,88,30.14,7.0,Calm,Calm,-,N/A,,Mostly Cloudy,0,2013-01-01 13:55:00
9:15 AM,51.8,48.2,88,30.14,7.0,Calm,Calm,-,N/A,,Overcast,0,2013-01-01 14:15:00
9:35 AM,53.6,48.2,82,30.15,7.0,Calm,Calm,-,N/A,,Overcast,0,2013-01-01 14:35:00
10:15 AM,53.6,48.2,82,30.15,7.0,Calm,Calm,-,N/A,,Overcast,0,2013-01-01 15:15:00
10:35 AM,53.6,48.2,82,30.15,7.0,Calm,Calm,-,N/A,,Overcast,0,2013-01-01 15:35:00
10:55 AM,55.4,50.0,82,30.14,5.0,Calm,Calm,-,N/A,,Haze,0,2013-01-01 15:55:00
11:15 AM,55.4,50.0,82,30.14,7.0,Calm,Calm,-,N/A,,Overcast,0,2013-01-01 16:15:00
11:35 AM,55.4,50.0,82,30.12,5.0,Calm,Calm,-,N/A,,Haze,0,2013-01-01 16:35:00
12:15 PM,57.2,51.8,82,30.10,5.0,Calm,Calm,-,N/A,,Haze,0,2013-01-01 17:15:00
12:35 PM,59.0,51.8,77,30.09,5.0,WSW,3.5,-,N/A,,Haze,240,2013-01-01 17:35:00
12:55 PM,59.0,51.8,77,30.08,5.0,West,3.5,-,N/A,Rain,Light Rain,260,2013-01-01 17:55:00
1:15 PM,59.0,51.8,77,30.07,7.0,Calm,Calm,-,N/A,Rain,Light Rain,0,2013-01-01 18:15:00
1:35 PM,59.0,51.8,77,30.06,10.0,Calm,Calm,-,N/A,,Overcast,0,2013-01-01 18:35:00
2:15 PM,59.0,51.8,77,30.04,5.0,Calm,Calm,-,N/A,,Haze,0,2013-01-01 19:15:00
2:35 PM,59.0,53.6,82,30.04,5.0,Calm,Calm,-,N/A,,Haze,0,2013-01-01 19:35:00
2:55 PM,59.0,53.6,82,30.04,7.0,Calm,Calm,-,N/A,,Overcast,0,2013-01-01 19:55:00
3:15 PM,59.0,53.6,82,30.04,5.0,Calm,Calm,-,N/A,,Overcast,0,2013-01-01 20:15:00
3:35 PM,59.0,53.6,82,30.03,7.0,Calm,Calm,-,N/A,,Overcast,0,2013-01-01 20:35:00
3:55 PM,59.0,53.6,82,30.03,5.0,Calm,Calm,-,N/A,,Overcast,0,2013-01-01 20:55:00
4:15 PM,59.0,53.6,82,30.02,7.0,Calm,Calm,-,N/A,,Overcast,0,2013-01-01 21:15:00
4:35 PM,57.2,53.6,88,30.02,5.0,Calm,Calm,-,N/A,,Overcast,0,2013-01-01 21:35:00
4:55 PM,55.4,55.4,100,30.01,5.0,Calm,Calm,-,N/A,,Overcast,0,2013-01-01 21:55:00
5:15 PM,55.4,55.4,100,30.01,7.0,Calm,Calm,-,N/A,,Overcast,0,2013-01-01 22:15:00
5:35 PM,55.4,55.4,100,30.01,7.0,Calm,Calm,-,N/A,,Overcast,0,2013-01-01 22:35:00
5:55 PM,55.4,55.4,100,30.00,7.0,Calm,Calm,-,N/A,,Overcast,0,2013-01-01 22:55:00
6:15 PM,55.4,55.4,100,30.01,7.0,Calm,Calm,-,N/A,,Overcast,0,2013-01-01 23:15:00
6:35 PM,55.4,55.4,100,30.01,7.0,Calm,Calm,-,N/A,,Overcast,0,2013-01-01 23:35:00
6:55 PM,55.4,55.4,100,30.01,7.0,Calm,Calm,-,N/A,,Overcast,0,2013-01-01 23:55:00
7:15 PM,55.4,55.4,100,30.01,7.0,Calm,Calm,-,N/A,,Overcast,0,2013-01-02 00:15:00
7:35 PM,53.6,53.6,100,29.99,5.0,Calm,Calm,-,N/A,,Overcast,0,2013-01-02 00:35:00
7:55 PM,53.6,53.6,100,30.01,5.0,Calm,Calm,-,N/A,,Overcast,0,2013-01-02 00:55:00
8:15 PM,53.6,53.6,100,30.01,7.0,Calm,Calm,-,N/A,,Overcast,0,2013-01-02 01:15:00
8:35 PM,53.6,53.6,100,30.00,5.0,Calm,Calm,-,N/A,,Overcast,0,2013-01-02 01:35:00
8:55 PM,53.6,53.6,100,30.00,7.0,Calm,Calm,-,N/A,,Overcast,0,2013-01-02 01:55:00
9:15 PM,53.6,53.6,100,30.00,7.0,Calm,Calm,-,N/A,,Overcast,0,2013-01-02 02:15:00
9:35 PM,53.6,53.6,100,30.00,7.0,Calm,Calm,-,N/A,,Overcast,0,2013-01-02 02:35:00
9:55 PM,53.6,53.6,100,29.99,5.0,Calm,Calm,-,N/A,,Overcast,0,2013-01-02 02:55:00
10:15 PM,53.6,53.6,100,29.99,7.0,Calm,Calm,-,N/A,,Overcast,0,2013-01-02 03:15:00
10:35 PM,53.6,53.6,100,29.98,5.0,Calm,Calm,-,N/A,,Overcast,0,2013-01-02 03:35:00
10:55 PM,51.8,51.8,100,29.97,7.0,Calm,Calm,-,N/A,,Overcast,0,2013-01-02 03:55:00
11:15 PM,51.8,51.8,100,29.96,5.0,Calm,Calm,-,N/A,,Overcast,0,2013-01-02 04:15:00
11:35 PM,51.8,51.8,100,29.96,5.0,Calm,Calm,-,N/A,,Overcast,0,2013-01-02 04:35:00
11:55 PM,50.0,50.0,100,29.95,4.0,Calm,Calm,-,N/A,,Mostly Cloudy,0,2013-01-02 04:55:00